Change the Weather History Date:

Monday, December 2, 2013

  Actual Average Record
Temperature  
Mean Temperature 79 °F -  
Max Temperature 87 °F 86 °F 91 °F (2003)
Min Temperature 71 °F 72 °F 68 °F (1999)
Cooling Degree Days 14    
Growing Degree Days 29 (Base 50)    
Moisture  
Dew Point 72 °F    
Average Humidity 76    
Maximum Humidity 89    
Minimum Humidity 55    
Precipitation  
Precipitation 0.00 in - - ()
Sea Level Pressure  
Sea Level Pressure 29.88 in    
Wind  
Wind Speed 2 mph ()    
Max Wind Speed 14 mph    
Max Gust Speed -    
Visibility 9.4 miles    
Events      
Averages and records for this station are not official NWS values.
T = Trace of Precipitation, MM = Missing Value Source: Averaged Metar Reports

Daily Weather History Graph

Daily Weather History Graph

Search for Another Location

Airport or City:

Trip Planner

Search our weather history database for the weather conditions in past years. The results will help you decide how hot, cold, wet, or windy it might be!

Date:

Astronomy

Dec. 02, 2013 Rise Set
Actual Time 6:19 AM CST 5:38 PM CST
Civil Twilight 5:56 AM CST 6:01 PM CST
Nautical Twilight 5:30 AM CST 6:27 PM CST
Astronomical Twilight 5:03 AM CST 6:54 PM CST
Moon 5:51 AM CST (12/2) 5:36 PM CST (12/2)
Length of Visible Light 12h 04m
Length of Day
11h 18m
Waning Crescent, 0% of the Moon is Illuminated
Dec 2
Waning Crescent
Dec 2
New
Dec 9
First Quarter
Dec 17
Full
Dec 25
Last Quarter

Hourly Weather History & Observations

Time (CST) Temp. Heat Index Dew Point Humidity Pressure Visibility Wind Dir Wind Speed Gust Speed Precip Events Conditions
12:41 AM 78.8 °F - 73.4 °F 83% 29.93 in 8.0 mi Calm Calm - N/A   Scattered Clouds
1:43 AM 75.2 °F - 71.6 °F 89% 29.91 in 8.0 mi Calm Calm - N/A   Scattered Clouds
2:45 AM 77.0 °F - 71.6 °F 83% 29.83 in 8.0 mi Calm Calm - N/A   Scattered Clouds
3:52 AM 73.4 °F - 69.8 °F 88% 29.88 in 8.0 mi Calm Calm - N/A   Scattered Clouds
4:40 AM 73.4 °F - 69.8 °F 88% 29.88 in 8.0 mi Calm Calm - N/A   Scattered Clouds
5:44 AM 73.4 °F - 68.0 °F 83% 29.83 in 8.0 mi Calm Calm - N/A   Scattered Clouds
6:40 AM 71.6 °F - 66.2 °F 83% 29.90 in 8.0 mi Calm Calm - N/A   Scattered Clouds
7:53 AM 75.2 °F - 68.0 °F 78% 29.92 in 10.0 mi Calm Calm - N/A   Clear
8:45 AM 80.6 °F 84.6 °F 71.6 °F 74% 29.88 in 10.0 mi Calm Calm - N/A   Clear
9:53 AM 84.2 °F 89.6 °F 71.6 °F 66% 29.94 in 10.0 mi Calm Calm - N/A   Clear
10:40 AM 87.8 °F 92.6 °F 69.8 °F 55% 29.93 in 10.0 mi Calm Calm - N/A   Clear
12:02 PM 87.8 °F 93.8 °F 71.6 °F 58% 29.88 in 10.0 mi South 13.8 mph - N/A   Clear
12:46 PM 87.8 °F 92.6 °F 69.8 °F 55% 29.87 in 10.0 mi SSW 11.5 mph - N/A   Scattered Clouds
1:44 PM 86.0 °F 93.4 °F 73.4 °F 66% 29.85 in 10.0 mi SW 11.5 mph - N/A   Scattered Clouds
2:48 PM 86.0 °F 91.8 °F 71.6 °F 62% 29.86 in 10.0 mi WSW 11.5 mph - N/A   Scattered Clouds
3:40 PM 84.2 °F 90.9 °F 73.4 °F 70% 29.83 in 10.0 mi WSW 11.5 mph - N/A   Scattered Clouds
4:40 PM 84.2 °F 90.9 °F 73.4 °F 70% 29.83 in 10.0 mi WSW 11.5 mph - N/A   Scattered Clouds
5:41 PM 82.4 °F 89.5 °F 75.2 °F 79% 29.88 in 10.0 mi Calm Calm - N/A   Scattered Clouds
7:07 PM 80.6 °F 84.6 °F 71.6 °F 74% 29.89 in 10.0 mi Calm Calm - N/A   Scattered Clouds
7:42 PM 80.6 °F 85.4 °F 73.4 °F 79% 29.90 in 10.0 mi Calm Calm - N/A   Scattered Clouds
8:40 PM 78.8 °F - 73.4 °F 83% 29.83 in 10.0 mi Calm Calm - N/A   Scattered Clouds
9:40 PM 78.8 °F - 73.4 °F 83% 29.93 in 10.0 mi Calm Calm - N/A   Clear
10:47 PM 77.0 °F - 73.4 °F 89% 29.94 in 10.0 mi Calm Calm - N/A   Clear
11:46 PM 78.8 °F - 71.6 °F 78% 29.91 in 10.0 mi Calm Calm - N/A   Scattered Clouds